Preview of NWS' New Version of Forecast
This preview is not operational and should not be used for support decisions.

Regional Weather Roundup (RWR)

Issued by National Weather Service (NWS)

                            
000
ASUS42 KTBW 202018
RWRFL 
FLORIDA REGIONAL WEATHER ROUNDUP
NATIONAL WEATHER SERVICE TAMPA BAY RUSKIN FL
400 PM EDT SAT JUL 20 2019

NOTE: "FAIR" INDICATES FEW OR NO CLOUDS BELOW 12,000 FEET WITH NO
SIGNIFICANT WEATHER AND/OR OBSTRUCTIONS TO VISIBILITY.

FLZ001>010-012>015-112-114-115-202100-
PANHANDLE FLORIDA
  
CITY           SKY/WX    TMP DP  RH WIND       PRES   REMARKS
PENSACOLA      FAIR      84  76  76 SE6       30.05F                  
PENSACOLA NAS  PTSUNNY   83  75  77 VRB3      30.04F                  
MILTON NAS     PTSUNNY   84  73  69 CALM      30.05F                  
CRESTVIEW      FAIR      86  70  58 SW10      30.07F                  
DUKE FIELD     FAIR      85  70  60 S10       30.05F                  
VALPARAISO     FAIR      84  73  70 S7        30.03F                  
MARY ESTHER    PTSUNNY   83  73  70 SW6       30.03F                  
TRI COUNTY     FAIR      86  73  65 S9        30.06F                  
PANAMA CITY    FAIR      82  70  66 SW6       30.04F                  
TYNDALL AFB    FAIR      82  73  75 SW7       30.05F                  
APALACHICOLA   FAIR      85  74  69 SW9       30.07F                  

STATION/POSITION SKY/WX   TEMP    WIND        PRES    WAVE   SWELL
                          AIR SEA DIR/SP/G            HT/PER HT/PER
                          (F)     (DEG/KT/KT) (MB)    (FT/S) (FT/S)
30.1N   87.6W              80 86  150/ 10/ 12 1017.3F   2/ 5   2/ 9
29.2N   88.2W              79 85  120/ 12/ 14 1017.5F   2/ 3
28.8N   86.0W                 86  340/  8/ 10 1018.1F   2/ 3
PANAMA CITY BEAC           81 86  210/  5/ 10 1018.8
TOWER C                    78     220/  6/  7 1018.4F
28.5N   84.5W              81     330/ 17/ 21 1018.4F   2/ 3

$$
FLZ011-016>038-118-127-128-134-139-239-202100-
NORTH FLORIDA
  
CITY           SKY/WX    TMP DP  RH WIND       PRES   REMARKS
MARIANNA       FAIR      81  76  84 S6        30.06F                  
TALLAHASSEE    PTSUNNY   83  73  72 SW10      30.06R THUNDER          
PERRY          FAIR      77  74  91 CALM      30.07F                  
LIVE OAK       PTSUNNY   84  73  70 W15       30.05S                  
CROSS CITY     FAIR      90  75  61 SW9       30.03F HX 101           
LAKE CITY      PTSUNNY   90  70  51 W5        30.04F HX  95           
GAINESVILLE    PTSUNNY   90  71  53 CALM      30.05F HX  96           
WILLISTON      FAIR      93  73  50 NW3       30.03F HX 102           
PALATKA        PTSUNNY   91  73  55 SE8       30.03F HX 100           
MAYPORT NAS    FAIR      90  73  57 SE14      30.03F HX  98           
JACKSONVILLE   PTSUNNY   92  74  55 NE6       30.02F HX 101           
JAX CECIL      PTSUNNY   99  72  41 VRB3      30.02F HX 107           
FERNANDINA BEA FAIR      87  77  71 E9        30.04F HX  99           
ST AUGUSTINE   FAIR      89  77  67 SE14      30.05F HX 101           
PALM COAST     PTSUNNY   75  72  88 W6        30.06F                  

STATION/POSITION SKY/WX   TEMP    WIND        PRES    WAVE   SWELL
                          AIR SEA DIR/SP/G            HT/PER HT/PER
                          (F)     (DEG/KT/KT) (MB)    (FT/S) (FT/S)
SHELL POINT      NOT AVBL
KEATON BEACH               84     250/ 10/ 11 1018.0F
CEDAR KEY                  86     250/  8/ 10 1017.5F
FERNANDINA                 93 86  150/  5/  8 1018.1F
30.7N   81.3W                 85                N/A     2/ 9
MAYPORT                    87 82  110/  9/ 12 1017.9F
31.4N   80.9W              82 85  170/ 10/ 12 1017.3F   2/ 9   2/ 9
ST AUGUSTINE               82 82  140/ 12/ 14 1017.7F

$$
FLZ040-043>046-052-053-057-058-063-144-202100-
INTERIOR CENTRAL FLORIDA
  
CITY           SKY/WX    TMP DP  RH WIND       PRES   REMARKS
OCALA          FAIR      93  72  50 VRB6      30.04F HX 101           
LEESBURG       FAIR      93  71  48 S5        30.04F HX 100           
SANFORD        FAIR      92  70  48 S9G16     30.04F HX  97           
ORLANDO EXEC   FAIR      88  69  53 SE9       30.04F                  
ORLANDO INTL   PTSUNNY   79  71  76 S10       30.06F THUNDER          
KISSIMMEE      TSTM      76  72  87 SW7       30.07F                  
WINTER HAVEN   TSTM      79  72  79 SE18G25   30.10R                  
LAKELAND       PTSUNNY   91  72  52 SE9       30.05F HX  98           
BARTOW         TSTM      79  70  73 E25G37    30.06R VSB 1            
SEBRING        FAIR      88  75  64 E10       30.05F HX  97           
OKEECHOBEE     FAIR      82  77  83 NE7       30.05F                  

$$
FLZ041-047-054-059-064-141-147-202100-
EAST CENTRAL FLORIDA
  
CITY           SKY/WX    TMP DP  RH WIND       PRES   REMARKS
ORMOND BEACH   MOSUNNY   90  75  62 E8        30.05F HX 100           
DAYTONA BEACH  PTSUNNY   90  78  68 E10       30.05F HX 104           
DELAND         FAIR      90  72  55 SE7       30.04F HX  96           
NEW SMYRNA BEA MOSUNNY   88  73  62 SE12      30.07F HX  96           
JFK SPACE CTR  SUNNY     89  65  43 SE7       30.05F                  
TITUSVILLE     MOSUNNY   90  72  55 SE6       30.07F HX  96           
CAPE CANAVERAL SUNNY     88  55  31 E8        30.05F                  
PATRICK AFB    FAIR      87  78  74 SE9       30.06F HX  99           
MELBOURNE      FAIR      86  74  67 E9        30.05F                  
VERO BEACH     FAIR      86  75  69 E7        30.06F HX  95           
FT PIERCE      FAIR      85  74  69 E12       30.05F                  
STUART         MOSUNNY   86  75  70 SE12G17   30.07F HX  95           

STATION/POSITION SKY/WX   TEMP    WIND        PRES    WAVE   SWELL
                          AIR SEA DIR/SP/G            HT/PER HT/PER
                          (F)     (DEG/KT/KT) (MB)    (FT/S) (FT/S)
28.5N   80.2W              83 84   50/  2/  4 1018.0F   2/ 9   2/ 9
28.9N   78.5W              85 87  150/  6/  8   N/A     3/ 8   2/ 8
TRIDENT PIER               87 83   70/  7/ 10 1019.7
28.4N   80.5W                 83                N/A     1/10
27.5N   80.2W                 83                N/A     2/ 3

$$
FLZ050-056-061-142-242-148-248-149-249-151-251-155-255-
160-260-202100-
WEST CENTRAL FLORIDA
  
CITY           SKY/WX    TMP DP  RH WIND       PRES   REMARKS
CRYSTAL RIVER  FAIR      88  77  70 NW6       30.04F HX 100           
INVERNESS      FAIR      95  73  49 S6        30.03F HX 105           
BROOKSVILLE    FAIR      90  76  63 VRB3      30.04F HX 101           
CLEARWATER AIR FAIR      86  72  62 W7        30.03F                  
ST PETE CLEARW FAIR      91  71  51 NE7       30.02F HX  97           
TAMPA INTL     FAIR      91  74  57 W8        30.03F THUNDER HX 100   
TAMPA EXEC     FAIR      90  72  55 CALM      30.04F HX  96           
PLANT CITY     FAIR     N/A N/A N/A MISG      30.06F                  
MACDILL AFB    FAIR      91  73  55 NE5       30.03F THUNDER HX 100   
PETER O KNIGHT PTSUNNY   91  73  55 SW3       30.03F HX 100           
ST PETERSBURG  FAIR      91  74  57 E5        30.01F HX 100           
SARASOTA       FAIR      91  75  59 W12       30.01F HX 101           
VENICE         FAIR      93  75  55 W12       30.03S HX 104           

STATION/POSITION SKY/WX   TEMP    WIND        PRES    WAVE   SWELL
                          AIR SEA DIR/SP/G            HT/PER HT/PER
                          (F)     (DEG/KT/KT) (MB)    (FT/S) (FT/S)
27.3N   84.2W                 88                N/A     2/ 4
CLEARWATER BEACH           86 88  230/  9/ 10 1017.5
MIDDLE TAMPA BAY           86     310/  8/  9 1017.4
VENICE                     87 86  250/ 11/ 12 1016.5F

$$
FLZ066-069-070-075>078-162-262-165-265-202100-
SOUTHWEST FLORIDA AND KEYS
  
CITY           SKY/WX    TMP DP  RH WIND       PRES   REMARKS
PUNTA GORDA    TSTM      74  74 100 SW10      30.07F FOG              
FT MYERS       LGT RAIN  75  71  87 W7        30.05R                  
SOUTHWEST INTL LGT RAIN  76  72  87 NW3       30.07R                  
MARCO ISLAND   FAIR      77  75  93 MISG      30.04F                  
IMMOKALEE      FAIR      79  75  89 CALM      30.03F                  
MARATHON       FAIR      91  77  63 SE9       30.01F HX 104           
KEY WEST NAS   PTSUNNY   90  76  63 E10       30.01F HX 101           
KEY WEST INTL  FAIR      88  76  67 SE7       30.01F HX  99           

STATION/POSITION SKY/WX   TEMP    WIND        PRES    WAVE   SWELL
                          AIR SEA DIR/SP/G            HT/PER HT/PER
                          (F)     (DEG/KT/KT) (MB)    (FT/S) (FT/S)
NAPLES                     77 87              1017.8
26.0N   85.6W              85 86  130/  4/  8 1017.0F   2/ 5   2/ 5
DRY TORTUGAS               85      60/  8/  8 1016.6F
SAND KEY                   86      90/  7/  8 1015.2
SOMBRERO KEY               85     100/ 11/ 12 1016.4
LONG KEY                   86                 1015.8

$$
FLZ067-068-071>074-168-172>174-202100-
SOUTHEAST FLORIDA 
  
CITY           SKY/WX    TMP DP  RH WIND       PRES   REMARKS
W PALM BEACH   PTSUNNY   89  74  60 SE14      30.05F HX  98           
BOCA RATON     MOSUNNY   91  77  62 SE9       30.05F THUNDER HX 105   
FT LAUDER-EXEC FAIR      89  73  59 SE13      30.04F THUNDER HX  97   
FT LAUDERDALE  PTSUNNY   86  75  69 SE13      30.03F THUNDER HX  95   
POMPANO BEACH  PTSUNNY   89  74  60 SE14      30.04F THUNDER HX  98   
PEMBROKE PINES LGT RAIN  83  75  77 E3        30.04F                  
OPA LOCKA      FAIR      88  74  63 SE12      30.03F HX  96           
MIAMI          PTSUNNY   88  73  61 SE14      30.03F HX  95           
WEST KENDALL   FAIR      88  76  67 E13       30.03F HX  99           
HOMESTEAD      PTSUNNY   88  77  68 E10       30.02F HX 100           

STATION/POSITION SKY/WX   TEMP    WIND        PRES    WAVE   SWELL
                          AIR SEA DIR/SP/G            HT/PER HT/PER
                          (F)     (DEG/KT/KT) (MB)    (FT/S) (FT/S)
VIRGINIA KEY               85 88   90/  8/ 13 1017.2
LAKE WORTH                 84 85  110/  7/  8 1019.1
FOWEY ROCKS                82 85   90/ 12/ 13 1017.1F
SETTLEMENT POINT           84     190/  6/  8 1018.1F

$$